Terminal Aerodrome Forecast
Issued by NWS

Home | Current Version | Previous Version | Text Only | Print | Product List | Glossary On
Versions: 1 2 3 4 5 6 7 8 9 10 11 12 13 14 15 16 17 18 19 20
000
FTUS46 KLOX 111139
TAFPMD
TAF
KPMD 111139Z 1112/1212 22010KT P6SM VCSH SCT050
     FM111400 24012G18KT P6SM SCT060 BKN200
     FM111900 26015G25KT P6SM SCT060
     FM120400 24010KT P6SM SCT080=

USA.gov is the U.S. government's official web portal to all federal, state and local government web resources and services.